• In Deutschland
  • Länderverzeichnis
  • Für 7 Tage
  • Wassertemperatur
  • Satellitenkarten
  • Wetterkarte
  • Widgets
  • user-avatar
    Anmelden

    Stündliche Wetter Uige

    Heute, 20 August, Sonntag

    Zeit Temperatur Niederschläge Wind Luftdruck Luftfeuchtigkeit
    00:00 +23°C° 0 mm 2 m/S 692 mmHg 77%
    01:00 +21°C° 0 mm 2 m/S 692 mmHg 81%
    02:00 +21°C° 0 mm 2 m/S 692 mmHg 82%
    03:00 +21°C° 0 mm 2 m/S 692 mmHg 83%
    04:00 +20°C° 0 mm 2 m/S 692 mmHg 83%
    05:00 +20°C° 0 mm 2 m/S 692 mmHg 83%
    06:00 +20°C° 0 mm 2 m/S 692 mmHg 82%
    07:00 +20°C° 0 mm 2 m/S 692 mmHg 81%
    08:00 +24°C° 0 mm 2 m/S 693 mmHg 69%
    09:00 +27°C° 0 mm 2 m/S 694 mmHg 56%
    10:00 +30°C° 0 mm 2 m/S 694 mmHg 44%
    11:00 +32°C° 0 mm 2 m/S 694 mmHg 38%
    12:00 +35°C° 0 mm 2 m/S 693 mmHg 33%
    13:00 +36°C° 0 mm 1 m/S 693 mmHg 27%
    14:00 +35°C° 0 mm 1 m/S 692 mmHg 29%
    15:00 +35°C° 0 mm 2 m/S 691 mmHg 31%
    16:00 +32°C° 0 mm 2 m/S 691 mmHg 33%
    17:00 +31°C° 0 mm 2 m/S 691 mmHg 37%
    18:00 +29°C° 0 mm 2 m/S 691 mmHg 41%
    19:00 +28°C° 0 mm 2 m/S 691 mmHg 45%
    20:00 +27°C° 0 mm 2 m/S 692 mmHg 50%
    21:00 +25°C° 0 mm 2 m/S 692 mmHg 56%
    22:00 +24°C° 0 mm 1 m/S 693 mmHg 62%
    23:00 +23°C° 0 mm 1 m/S 693 mmHg 67%

    Morgen, 21 August, Montag

    Zeit Temperatur Niederschläge Wind Luftdruck Luftfeuchtigkeit
    00:00 +22°C° 0 mm 1 m/S 693 mmHg 71%
    01:00 +21°C° 0 mm 1 m/S 693 mmHg 75%
    02:00 +20°C° 0 mm 1 m/S 692 mmHg 78%
    03:00 +20°C° 0 mm 1 m/S 692 mmHg 80%
    04:00 +19°C° 0 mm 1 m/S 691 mmHg 83%
    05:00 +19°C° 0 mm 1 m/S 692 mmHg 82%
    06:00 +20°C° 0 mm 1 m/S 692 mmHg 80%
    07:00 +20°C° 0 mm 1 m/S 692 mmHg 79%
    08:00 +23°C° 0 mm 1 m/S 693 mmHg 65%
    09:00 +26°C° 0 mm 2 m/S 693 mmHg 52%
    10:00 +30°C° 0 mm 2 m/S 694 mmHg 38%
    11:00 +32°C° 0 mm 2 m/S 693 mmHg 33%
    12:00 +35°C° 0 mm 2 m/S 693 mmHg 29%
    13:00 +38°C° 0 mm 2 m/S 692 mmHg 24%
    14:00 +36°C° 0 mm 2 m/S 692 mmHg 26%
    15:00 +35°C° 0 mm 2 m/S 691 mmHg 28%
    16:00 +32°C° 0 mm 2 m/S 690 mmHg 30%
    17:00 +31°C° 0 mm 2 m/S 690 mmHg 33%
    18:00 +30°C° 0 mm 2 m/S 691 mmHg 36%
    19:00 +28°C° 0 mm 2 m/S 691 mmHg 39%
    20:00 +27°C° 0 mm 2 m/S 691 mmHg 45%
    21:00 +25°C° 0 mm 2 m/S 692 mmHg 52%
    22:00 +23°C° 0 mm 2 m/S 692 mmHg 58%
    23:00 +21°C° 0 mm 2 m/S 692 mmHg 63%

    übermorgen, 22 August, Dienstag

    Zeit Temperatur Niederschläge Wind Luftdruck Luftfeuchtigkeit
    00:00 +20°C° 0 mm 2 m/S 691 mmHg 69%
    01:00 +19°C° 0 mm 2 m/S 691 mmHg 74%
    02:00 +18°C° 0 mm 2 m/S 691 mmHg 77%
    03:00 +18°C° 0 mm 2 m/S 690 mmHg 80%
    04:00 +17°C° 0 mm 2 m/S 690 mmHg 83%
    05:00 +18°C° 0 mm 1 m/S 691 mmHg 82%
    06:00 +19°C° 0 mm 1 m/S 691 mmHg 80%
    07:00 +19°C° 0 mm 1 m/S 691 mmHg 79%
    08:00 +23°C° 0 mm 1 m/S 692 mmHg 64%
    09:00 +26°C° 0 mm 1 m/S 693 mmHg 49%
    10:00 +30°C° 0 mm 1 m/S 693 mmHg 35%
    11:00 +32°C° 0 mm 1 m/S 693 mmHg 31%
    12:00 +35°C° 0 mm 1 m/S 692 mmHg 27%
    13:00 +37°C° 0 mm 1 m/S 691 mmHg 23%
    14:00 +36°C° 0 mm 1 m/S 690 mmHg 24%
    15:00 +35°C° 0 mm 1 m/S 689 mmHg 26%
    16:00 +33°C° 0 mm 1 m/S 688 mmHg 28%
    17:00 +32°C° 0 mm 1 m/S 689 mmHg 31%
    18:00 +30°C° 0 mm 1 m/S 689 mmHg 34%
    19:00 +28°C° 0 mm 1 m/S 689 mmHg 37%
    20:00 +27°C° 0 mm 1 m/S 689 mmHg 41%
    21:00 +26°C° 0 mm 1 m/S 690 mmHg 45%
    22:00 +25°C° 0 mm 2 m/S 690 mmHg 48%
    23:00 +24°C° 0 mm 2 m/S 690 mmHg 54%

    23 August, Mittwoch

    Zeit Temperatur Niederschläge Wind Luftdruck Luftfeuchtigkeit
    00:00 +23°C° 0 mm 2 m/S 690 mmHg 60%
    01:00 +21°C° 0 mm 2 m/S 690 mmHg 66%
    02:00 +20°C° 0 mm 2 m/S 690 mmHg 72%
    03:00 +20°C° 0 mm 1 m/S 689 mmHg 78%
    04:00 +19°C° 0 mm 1 m/S 689 mmHg 83%
    05:00 +19°C° 0 mm 1 m/S 690 mmHg 83%
    06:00 +20°C° 0 mm 1 m/S 690 mmHg 83%
    07:00 +20°C° 0 mm 1 m/S 691 mmHg 82%
    08:00 +22°C° 0 mm 1 m/S 691 mmHg 71%
    09:00 +25°C° 0 mm 2 m/S 692 mmHg 59%
    10:00 +27°C° 0 mm 2 m/S 693 mmHg 48%
    11:00 +29°C° 0 mm 2 m/S 692 mmHg 42%
    12:00 +31°C° 0 mm 2 m/S 691 mmHg 36%
    13:00 +34°C° 0 mm 2 m/S 691 mmHg 31%
    14:00 +34°C° 0 mm 2 m/S 690 mmHg 31%
    15:00 +34°C° 0 mm 2 m/S 690 mmHg 31%
    16:00 +32°C° 0 mm 2 m/S 689 mmHg 32%
    17:00 +31°C° 0 mm 2 m/S 690 mmHg 35%
    18:00 +30°C° 0 mm 2 m/S 690 mmHg 38%
    19:00 +28°C° 0 mm 2 m/S 690 mmHg 42%
    20:00 +27°C° 0 mm 2 m/S 691 mmHg 48%
    21:00 +25°C° 0 mm 2 m/S 691 mmHg 55%
    22:00 +24°C° 0 mm 3 m/S 691 mmHg 61%
    23:00 +23°C° 0 mm 2 m/S 691 mmHg 66%

    24 August, Donnerstag

    Zeit Temperatur Niederschläge Wind Luftdruck Luftfeuchtigkeit
    00:00 +21°C° 0 mm 2 m/S 691 mmHg 71%
    01:00 +20°C° 0 mm 2 m/S 691 mmHg 76%
    02:00 +19°C° 0 mm 2 m/S 691 mmHg 79%
    03:00 +19°C° 0 mm 2 m/S 691 mmHg 82%
    04:00 +18°C° 0 mm 2 m/S 691 mmHg 85%
    05:00 +19°C° 0 mm 2 m/S 691 mmHg 83%
    06:00 +19°C° 0 mm 2 m/S 691 mmHg 82%
    07:00 +19°C° 0 mm 2 m/S 692 mmHg 80%
    08:00 +21°C° 0 mm 2 m/S 692 mmHg 69%
    09:00 +25°C° 0 mm 2 m/S 693 mmHg 58%
    10:00 +27°C° 0 mm 3 m/S 694 mmHg 46%
    11:00 +29°C° 0 mm 3 m/S 693 mmHg 42%
    12:00 +31°C° 0 mm 3 m/S 692 mmHg 37%
    13:00 +34°C° 0 mm 3 m/S 692 mmHg 33%
    14:00 +33°C° 0 mm 3 m/S 691 mmHg 34%
    15:00 +33°C° 0 mm 3 m/S 691 mmHg 34%
    16:00 +33°C° 0 mm 3 m/S 690 mmHg 35%
    17:00 +30°C° 0 mm 3 m/S 690 mmHg 39%
    18:00 +28°C° 0 mm 3 m/S 691 mmHg 44%
    19:00 +27°C° 0 mm 3 m/S 691 mmHg 49%
    20:00 +26°C° 0 mm 3 m/S 691 mmHg 54%
    21:00 +24°C° 0 mm 2 m/S 692 mmHg 60%
    22:00 +23°C° 0 mm 2 m/S 692 mmHg 65%
    23:00 +21°C° 0 mm 2 m/S 692 mmHg 69%

    25 August, Freitag

    Zeit Temperatur Niederschläge Wind Luftdruck Luftfeuchtigkeit
    00:00 +20°C° 0 mm 2 m/S 692 mmHg 74%
    01:00 +20°C° 0 mm 2 m/S 691 mmHg 78%
    02:00 +19°C° 0 mm 2 m/S 691 mmHg 81%
    03:00 +19°C° 0 mm 2 m/S 691 mmHg 84%
    04:00 +18°C° 0 mm 2 m/S 691 mmHg 86%
    05:00 +18°C° 0 mm 2 m/S 691 mmHg 86%
    06:00 +18°C° 0 mm 2 m/S 692 mmHg 85%
    07:00 +18°C° 0 mm 2 m/S 692 mmHg 84%
    08:00 +21°C° 0 mm 2 m/S 692 mmHg 71%
    09:00 +25°C° 0 mm 2 m/S 693 mmHg 58%
    10:00 +28°C° 0 mm 3 m/S 693 mmHg 45%
    11:00 +30°C° 0 mm 3 m/S 693 mmHg 40%
    12:00 +33°C° 0 mm 3 m/S 692 mmHg 35%
    13:00 +35°C° 0 mm 3 m/S 692 mmHg 29%
    14:00 +34°C° 0 mm 3 m/S 691 mmHg 29%
    15:00 +34°C° 0 mm 3 m/S 691 mmHg 29%
    16:00 +34°C° 0 mm 3 m/S 690 mmHg 29%
    17:00 +31°C° 0 mm 3 m/S 690 mmHg 33%
    18:00 +29°C° 0 mm 3 m/S 690 mmHg 37%
    19:00 +28°C° 0 mm 3 m/S 691 mmHg 41%
    20:00 +26°C° 0 mm 2 m/S 691 mmHg 47%
    21:00 +25°C° 0 mm 2 m/S 691 mmHg 52%
    22:00 +23°C° 0 mm 2 m/S 692 mmHg 58%
    23:00 +23°C° 0 mm 2 m/S 691 mmHg 62%
    Mehr zeigen